Dewpoint
52 52 53 53 54 54 54 55 54 55 56 57 57 57 58 57 55 42 25 35 40 59 53 47 48 47 45 45 44 43 42 42 44 43 44 48 48 48 45 44 46 48 53 55 57
50 50 50 51 53 53 53 53 53 54 55 56 57 57 57 57 44 30 42 54 59 60 42 40 36 31 28 35 37 42 42 43 47 46 46 47 47 45 43 46 49 52 54 56 56
50 49 49 50 51 52 52 52 53 54 55 55 56 57 56 55 32 23 55 58 60 57 34 32 31 29 30 32 43 44 42 44 44 48 47 47 46 45 44 45 48 51 52 53 55
49 49 49 49 49 51 52 51 52 53 54 55 56 57 56 48 22 27 61 61 61 36 29 29 32 31 32 33 43 40 42 45 46 48 47 46 46 44 44 44 48 52 52 52 53
49 48 48 49 49 50 51 51 52 52 53 54 56 57 42 33 21 48 61 59 39 32 28 27 30 32 33 41 40 41 42 44 47 47 47 46 45 45 45 48 51 51 51 50 51
48 49 48 48 48 49 51 51 51 52 53 54 56 56 41 19 24 48 42 38 35 33 30 28 28 31 31 37 39 42 43 45 46 46 45 45 44 42 44 49 50 50 49 49 49
48 49 49 48 48 49 50 50 51 51 52 53 56 48 38 23 34 40 41 37 38 34 30 31 30 31 34 39 42 43 41 41 43 43 44 43 41 41 46 49 48 48 48 48 48
48 49 49 49 49 49 50 50 50 52 53 55 55 39 26 26 33 34 39 38 40 37 34 32 33 36 38 43 40 39 40 39 41 42 43 42 40 42 48 48 47 48 47 47 46
48 49 49 49 49 49 49 50 51 53 54 55 39 33 23 33 32 30 37 34 36 37 36 40 40 39 41 39 37 38 33 38 38 42 41 41 40 41 46 47 47 46 46 47 44
47 48 49 49 48 49 49 51 51 52 52 51 33 27 23 22 27 33 35 35 40 42 41 39 38 35 36 37 31 33 35 35 37 40 41 40 40 40 43 45 45 45 46 46 41
47 47 49 48 48 49 50 43 41 37 41 27 23 24 26 26 26 32 38 43 43 41 39 39 35 34 32 36 36 36 35 35 35 39 40 40 40 39 40 42 43 44 45 45 44
46 47 48 48 47 50 50 45 52 47 41 41 39 37 38 34 23 27 38 39 42 38 40 37 35 37 38 36 33 35 35 34 26 39 40 39 39 39 40 40 41 43 44 44 44
46 46 48 47 48 48 50 50 52 52 40 37 38 31 26 26 22 23 37 39 39 39 39 37 38 36 34 34 24 23 25 21 22 38 39 34 32 33 38 40 41 42 44 44 45
46 47 47 46 45 42 51 45 48 53 34 30 37 32 21 21 21 21 36 36 38 37 38 37 36 33 32 30 25 21 22 22 21 33 31 30 21 20 24 30 40 41 43 43 45
47 47 47 46 41 39 46 43 49 44 8 22 31 24 20 16 16 19 31 35 33 34 34 34 26 26 29 30 27 25 26 22 22 21 18 19 16 16 25 33 35 41 42 43 44
46 46 46 40 36 35 41 46 45 30 15 30 21 14 17 17 16 25 29 34 35 33 30 30 27 25 26 29 29 28 26 28 26 22 15 17 14 14 19 28 33 36 39 40 41
46 46 45 43 26 40 45 46 28 22 29 28 18 15 16 14 14 20 26 28 29 27 27 27 26 25 28 27 26 28 28 24 19 21 18 21 17 17 26 30 32 32 32 35 35
45 46 41 43 42 43 49 42 20 27 33 36 29 17 12 13 14 19 22 25 27 28 27 25 25 24 25 28 25 26 27 27 18 19 22 24 17 22 29 32 34 36 37 37 36
46 37 40 42 45 46 44 34 31 35 39 36 29 17 14 16 14 19 23 23 25 28 23 26 24 25 24 28 26 27 26 29 26 28 23 23 23 28 28 31 34 35 36 37 37
41 39 41 45 49 48 40 34 39 42 40 39 27 24 16 14 14 14 17 22 24 30 28 26 23 22 21 24 27 27 29 26 28 19 20 22 21 23 26 28 34 35 36 36 37
39 35 43 53 49 41 23 34 40 41 37 38 36 33 25 27 26 18 17 19 26 28 29 28 26 22 22 22 22 24 28 32 29 27 22 18 19 25 26 29 33 35 36 36 39
37 24 44 50 34 38 32 38 38 33 35 35 39 37 29 34 31 26 21 20 25 28 26 28 28 22 20 25 26 25 26 31 27 22 27 24 21 30 28 32 36 37 37 39 42
34 35 45 45 29 31 34 34 35 33 29 31 36 34 36 34 32 32 29 27 25 25 26 29 26 23 21 24 26 25 27 31 31 30 27 25 24 33 35 36 37 37 39 41 42
34 28 32 42 39 36 35 34 31 34 28 32 30 31 34 35 36 33 32 30 30 28 40 35 29 25 21 23 26 23 24 30 28 26 25 26 25 31 33 35 37 38 40 41 41
34 27 33 24 31 32 35 35 33 32 35 34 30 30 31 31 34 32 34 33 28 34 30 28 24 26 27 26 24 23 21 29 27 27 25 24 25 27 32 35 36 39 40 40 40
30 30 32 29 31 30 32 33 32 32 32 32 31 33 35 35 35 33 33 33 34 33 28 29 20 24 24 30 26 24 23 27 29 28 29 26 28 29 34 36 37 39 39 39 39
34 35 32 29 28 26 28 27 30 34 34 34 36 36 36 38 39 38 36 35 35 34 32 27 29 25 21 26 27 24 27 26 29 28 26 25 26 32 35 34 36 39 39 38 37
Lifted_Index
8 8 8 7 7 7 7 7 8 8 10 11 12 12 11 10 9 8 8 7 6 5 4 3 2 2 2 1 2 2 1 -0 -0 0 0 0 -0 -0 -0 -0 1 1 1 1 0
8 8 8 7 7 7 7 7 7 8 9 11 12 12 11 10 9 8 8 7 6 4 3 3 3 2 1 1 1 1 0 -0 -0 -0 0 0 0 -0 -0 -0 0 1 1 0 0
10 10 10 8 7 7 7 7 7 7 8 10 11 12 11 10 9 8 8 7 6 4 3 3 3 2 1 0 0 0 -0 -0 -0 -0 -0 -0 -0 -0 -0 -0 0 0 0 0 0
14 14 12 10 8 7 7 7 7 6 7 9 11 11 10 9 8 8 8 7 6 4 3 3 3 2 1 0 0 0 -0 -0 -0 -0 -0 -0 -0 -0 -0 -0 0 1 1 1 1
16 16 14 11 8 7 7 7 7 7 7 8 10 11 9 8 7 7 7 7 6 4 3 3 3 2 1 0 0 -0 -0 -0 -0 -0 -0 -0 -0 -1 -0 -0 1 1 1 1 1
16 16 15 13 10 8 7 7 7 7 7 8 10 10 8 7 6 6 6 6 5 4 3 3 3 2 1 0 -0 -0 -0 -0 0 0 -0 -0 -1 -0 -0 0 1 1 1 1 1
16 16 16 15 12 10 8 7 7 7 7 8 10 10 8 7 6 6 5 5 4 4 3 4 4 2 1 0 -0 -0 -0 0 0 0 -0 -0 -0 -0 0 0 0 0 1 1 1
16 16 16 15 14 12 9 8 7 7 7 8 10 10 8 8 7 6 5 4 3 3 3 3 2 1 0 -0 -0 -0 -0 0 0 0 -0 0 0 0 0 0 0 0 0 1 1
17 16 16 15 14 12 9 8 7 7 7 8 10 9 8 8 7 6 5 4 3 2 2 1 1 0 -0 -1 -0 0 0 1 0 -0 -0 0 0 0 0 1 1 1 0 1 1
17 16 16 15 13 9 7 7 7 6 7 8 9 8 8 7 7 5 4 3 2 1 0 -0 -0 -0 -0 -0 -0 1 1 1 0 -0 -0 -0 -0 0 0 1 1 1 0 0 1
17 16 16 14 10 7 6 6 6 6 6 7 8 8 7 7 6 5 3 2 1 0 -0 -0 -0 0 0 0 0 1 1 0 0 0 -0 -1 -0 0 0 1 1 1 0 0 1
16 16 16 13 8 5 5 5 5 6 6 7 7 7 7 7 6 5 3 1 0 -1 -1 -0 -0 0 0 0 1 1 1 0 0 0 -0 -1 -1 -0 0 0 0 0 0 0 1
16 16 15 11 6 3 4 4 4 5 6 6 6 7 7 7 6 5 4 2 1 -0 -1 -0 -0 -0 0 0 1 1 1 1 0 -0 -1 -0 -0 0 0 0 0 -0 -0 -0 0
16 16 15 11 6 3 4 4 4 4 5 5 5 6 7 7 6 5 4 3 2 0 -0 -0 -0 -0 0 0 0 1 1 1 1 0 0 0 1 1 1 1 1 0 -0 -1 -0
16 16 15 13 8 4 3 3 4 4 4 4 5 6 6 6 6 6 5 4 2 1 1 0 1 0 0 0 0 1 1 1 1 1 1 1 2 2 2 2 1 1 -0 -1 -0
16 16 15 14 11 7 4 3 4 4 4 4 5 5 5 5 6 5 5 4 3 2 2 1 1 1 1 0 0 1 1 1 1 1 1 1 2 2 2 2 1 1 0 -0 -0
16 16 15 14 12 9 5 3 4 4 4 4 5 5 5 5 5 5 5 4 3 3 3 2 1 1 1 1 1 1 1 0 0 0 1 1 1 1 2 1 1 1 0 -0 -0
15 15 14 12 10 8 5 3 4 4 4 4 4 4 4 4 5 5 5 4 4 3 3 3 2 2 2 1 1 1 1 1 0 0 0 1 1 1 2 1 0 0 0 0 0
14 14 12 9 7 5 4 4 4 4 3 3 4 4 4 4 5 5 5 4 4 4 3 3 3 3 2 2 2 2 1 1 1 0 0 1 1 1 2 1 1 1 1 1 1
12 11 8 6 4 4 4 5 4 3 2 2 3 3 4 4 4 5 5 5 4 4 4 4 4 3 3 3 2 2 2 1 1 1 0 1 1 1 1 1 1 1 2 2 2
10 8 5 3 4 4 5 5 4 3 2 2 2 2 3 3 4 4 5 5 5 4 4 4 4 4 4 3 3 2 2 2 2 1 1 1 1 1 1 1 1 2 2 3 3
8 6 3 3 4 5 5 5 5 4 4 3 2 2 2 3 3 3 4 4 4 4 4 4 4 4 4 3 3 3 2 2 2 2 2 2 2 2 2 1 2 2 3 3 4
8 6 3 3 4 5 5 6 6 5 5 4 3 1 1 2 2 2 3 4 4 4 4 4 4 4 4 3 3 3 2 2 2 2 2 2 2 2 2 2 2 2 2 3 3
8 7 5 4 4 4 5 5 6 5 5 5 4 2 1 1 1 1 2 3 4 4 4 4 4 4 3 3 3 3 3 2 3 3 3 2 2 2 2 2 2 2 2 2 2
8 8 7 6 5 5 5 5 5 5 5 5 4 3 2 1 1 1 1 2 3 3 3 3 3 3 3 3 3 3 3 3 3 3 3 3 3 3 2 2 2 2 2 2 2
9 9 8 8 7 6 6 6 6 6 5 5 4 4 3 2 1 1 1 1 2 3 3 3 3 3 3 3 3 3 3 3 3 3 3 3 3 3 3 3 3 2 2 2 2
10 9 9 8 8 7 7 7 7 6 6 5 5 4 3 2 2 1 1 1 1 2 3 3 3 3 3 3 3 3 3 3 3 3 3 3 3 4 4 3 3 3 3 3 3